Previsão horária em Celinnyy

Hoje, 31 Julho, Sábado

Tempo Temperatura Precipitação Vento Pressão Humidade
00:00 +25°C° 0 mm 1 m/s 748 mmHg 43%
01:00 +25°C° 0 mm 1 m/s 748 mmHg 47%
02:00 +24°C° 0 mm 1 m/s 748 mmHg 50%
03:00 +24°C° 0 mm 1 m/s 748 mmHg 54%
04:00 +24°C° 0 mm 1 m/s 748 mmHg 54%
05:00 +24°C° 0 mm 1 m/s 748 mmHg 54%
06:00 +22°C° 0 mm 0 m/s 748 mmHg 55%
07:00 +26°C° 0 mm 1 m/s 748 mmHg 48%
08:00 +29°C° 0 mm 1 m/s 748 mmHg 40%
09:00 +31°C° 0 mm 1 m/s 748 mmHg 33%
10:00 +33°C° 0 mm 1 m/s 748 mmHg 30%
11:00 +34°C° 0 mm 1 m/s 748 mmHg 26%
12:00 +36°C° 0 mm 1 m/s 748 mmHg 23%
13:00 +36°C° 0 mm 1 m/s 748 mmHg 22%
14:00 +36°C° 0 mm 1 m/s 747 mmHg 21%
15:00 +37°C° 0 mm 1 m/s 747 mmHg 20%
16:00 +37°C° 0 mm 1 m/s 747 mmHg 21%
17:00 +36°C° 0 mm 1 m/s 747 mmHg 22%
18:00 +37°C° 0 mm 2 m/s 747 mmHg 22%
19:00 +34°C° 0 mm 2 m/s 747 mmHg 26%
20:00 +31°C° 0 mm 2 m/s 748 mmHg 30%
21:00 +29°C° 0 mm 3 m/s 748 mmHg 34%
22:00 +28°C° 0 mm 2 m/s 748 mmHg 36%
23:00 +27°C° 0 mm 2 m/s 748 mmHg 39%

Amanhã, 1 Agosto, Domingo

Tempo Temperatura Precipitação Vento Pressão Humidade
00:00 +26°C° 0 mm 2 m/s 748 mmHg 41%
01:00 +26°C° 0 mm 2 m/s 748 mmHg 42%
02:00 +26°C° 0 mm 2 m/s 748 mmHg 43%
03:00 +25°C° 0 mm 1 m/s 748 mmHg 45%
04:00 +25°C° 0 mm 1 m/s 749 mmHg 44%
05:00 +25°C° 0 mm 2 m/s 749 mmHg 43%
06:00 +25°C° 0 mm 2 m/s 749 mmHg 41%
07:00 +28°C° 0 mm 2 m/s 749 mmHg 36%
08:00 +31°C° 0 mm 2 m/s 749 mmHg 30%
09:00 +34°C° 0 mm 2 m/s 749 mmHg 25%
10:00 +36°C° 0 mm 2 m/s 749 mmHg 23%
11:00 +37°C° 0 mm 2 m/s 749 mmHg 20%
12:00 +38°C° 0 mm 3 m/s 749 mmHg 18%
13:00 +39°C° 0 mm 2 m/s 749 mmHg 17%
14:00 +39°C° 0 mm 2 m/s 748 mmHg 17%
15:00 +40°C° 0 mm 2 m/s 748 mmHg 16%
16:00 +39°C° 0 mm 2 m/s 748 mmHg 17%
17:00 +39°C° 0 mm 3 m/s 748 mmHg 18%
18:00 +38°C° 0 mm 3 m/s 748 mmHg 19%
19:00 +36°C° 0 mm 3 m/s 748 mmHg 21%
20:00 +34°C° 0 mm 3 m/s 748 mmHg 23%
21:00 +31°C° 0 mm 2 m/s 748 mmHg 25%
22:00 +30°C° 0 mm 2 m/s 748 mmHg 26%
23:00 +29°C° 0 mm 2 m/s 748 mmHg 27%

Depois de amanhã, 2 Agosto, Segunda-feira

Tempo Temperatura Precipitação Vento Pressão Humidade
00:00 +28°C° 0 mm 2 m/s 748 mmHg 28%
01:00 +28°C° 0 mm 2 m/s 748 mmHg 29%
02:00 +27°C° 0 mm 1 m/s 748 mmHg 29%
03:00 +27°C° 0 mm 1 m/s 748 mmHg 30%
04:00 +27°C° 0 mm 1 m/s 748 mmHg 32%
05:00 +27°C° 0 mm 1 m/s 749 mmHg 34%
06:00 +27°C° 0 mm 1 m/s 749 mmHg 35%
07:00 +29°C° 0 mm 1 m/s 749 mmHg 32%
08:00 +32°C° 0 mm 2 m/s 749 mmHg 29%
09:00 +36°C° 0 mm 2 m/s 749 mmHg 27%
10:00 +37°C° 0 mm 2 m/s 749 mmHg 24%
11:00 +38°C° 0 mm 2 m/s 749 mmHg 22%
12:00 +40°C° 0 mm 3 m/s 749 mmHg 20%
13:00 +40°C° 0 mm 2 m/s 748 mmHg 20%
14:00 +40°C° 0 mm 2 m/s 748 mmHg 19%
15:00 +41°C° 0 mm 2 m/s 748 mmHg 19%
16:00 +40°C° 0 mm 2 m/s 748 mmHg 21%
17:00 +39°C° 0 mm 3 m/s 747 mmHg 23%
18:00 +38°C° 0 mm 4 m/s 747 mmHg 26%
19:00 +36°C° 0 mm 3 m/s 747 mmHg 29%
20:00 +34°C° 0 mm 3 m/s 747 mmHg 33%
21:00 +31°C° 0 mm 3 m/s 747 mmHg 37%
22:00 +31°C° 0 mm 2 m/s 747 mmHg 37%
23:00 +30°C° 0 mm 2 m/s 747 mmHg 37%

3 Agosto, Terça-feira

Tempo Temperatura Precipitação Vento Pressão Humidade
00:00 +29°C° 0 mm 2 m/s 748 mmHg 37%
01:00 +29°C° 0 mm 2 m/s 748 mmHg 38%
02:00 +28°C° 0 mm 1 m/s 747 mmHg 38%
03:00 +28°C° 0 mm 1 m/s 747 mmHg 39%
04:00 +28°C° 0 mm 1 m/s 748 mmHg 40%
05:00 +28°C° 0 mm 1 m/s 748 mmHg 41%
06:00 +26°C° 0 mm 0 m/s 748 mmHg 42%
07:00 +30°C° 0 mm 1 m/s 748 mmHg 37%
08:00 +34°C° 0 mm 2 m/s 748 mmHg 32%
09:00 +36°C° 0 mm 2 m/s 748 mmHg 27%
10:00 +38°C° 0 mm 2 m/s 748 mmHg 25%
11:00 +39°C° 0 mm 3 m/s 748 mmHg 22%
12:00 +42°C° 0 mm 3 m/s 748 mmHg 20%
13:00 +42°C° 0 mm 4 m/s 748 mmHg 19%
14:00 +42°C° 0 mm 4 m/s 747 mmHg 18%
15:00 +43°C° 0 mm 5 m/s 747 mmHg 17%
16:00 +41°C° 0 mm 5 m/s 747 mmHg 20%
17:00 +40°C° 0 mm 5 m/s 748 mmHg 22%
18:00 +38°C° 0 mm 6 m/s 748 mmHg 25%
19:00 +35°C° 0 mm 5 m/s 748 mmHg 31%
20:00 +33°C° 0 mm 5 m/s 749 mmHg 38%
21:00 +30°C° 0 mm 4 m/s 749 mmHg 45%
22:00 +29°C° 0 mm 4 m/s 749 mmHg 50%
23:00 +28°C° 0 mm 3 m/s 750 mmHg 54%

4 Agosto, Quarta-feira

Tempo Temperatura Precipitação Vento Pressão Humidade
00:00 +26°C° 0 mm 2 m/s 750 mmHg 59%
01:00 +26°C° 0 mm 3 m/s 750 mmHg 60%
02:00 +25°C° 0 mm 3 m/s 750 mmHg 61%
03:00 +25°C° 0 mm 4 m/s 751 mmHg 62%
04:00 +25°C° 0 mm 4 m/s 751 mmHg 62%
05:00 +23°C° 0 mm 4 m/s 751 mmHg 62%
06:00 +23°C° 0 mm 4 m/s 752 mmHg 61%
07:00 +25°C° 0 mm 4 m/s 752 mmHg 57%
08:00 +26°C° 0 mm 4 m/s 752 mmHg 53%
09:00 +28°C° 0 mm 4 m/s 753 mmHg 49%
10:00 +29°C° 0 mm 4 m/s 752 mmHg 44%
11:00 +32°C° 0 mm 4 m/s 752 mmHg 40%
12:00 +33°C° 0 mm 3 m/s 752 mmHg 35%
13:00 +34°C° 0 mm 3 m/s 752 mmHg 31%
14:00 +35°C° 0 mm 4 m/s 752 mmHg 28%
15:00 +36°C° 0 mm 4 m/s 752 mmHg 25%
16:00 +35°C° 0 mm 4 m/s 752 mmHg 25%
17:00 +35°C° 0 mm 4 m/s 752 mmHg 24%
18:00 +35°C° 0 mm 4 m/s 752 mmHg 24%
19:00 +32°C° 0 mm 4 m/s 752 mmHg 28%
20:00 +29°C° 0 mm 4 m/s 752 mmHg 31%
21:00 +27°C° 0 mm 4 m/s 752 mmHg 34%
22:00 +26°C° 0 mm 3 m/s 752 mmHg 36%
23:00 +25°C° 0 mm 3 m/s 752 mmHg 37%

5 Agosto, Quinta-feira

Tempo Temperatura Precipitação Vento Pressão Humidade
00:00 +25°C° 0 mm 3 m/s 752 mmHg 38%
01:00 +24°C° 0 mm 3 m/s 752 mmHg 41%
02:00 +24°C° 0 mm 3 m/s 752 mmHg 44%
03:00 +24°C° 0 mm 3 m/s 752 mmHg 46%
04:00 +24°C° 0 mm 3 m/s 752 mmHg 44%
05:00 +25°C° 0 mm 4 m/s 752 mmHg 42%
06:00 +25°C° 0 mm 4 m/s 752 mmHg 40%
07:00 +27°C° 0 mm 4 m/s 752 mmHg 38%
08:00 +28°C° 0 mm 5 m/s 752 mmHg 36%
09:00 +30°C° 0 mm 5 m/s 752 mmHg 35%
10:00 +32°C° 0 mm 5 m/s 752 mmHg 32%
11:00 +34°C° 0 mm 5 m/s 751 mmHg 29%
12:00 +36°C° 0 mm 5 m/s 751 mmHg 26%
13:00 +36°C° 0 mm 5 m/s 751 mmHg 25%
14:00 +37°C° 0 mm 5 m/s 751 mmHg 24%
15:00 +38°C° 0 mm 4 m/s 750 mmHg 23%
16:00 +37°C° 0 mm 4 m/s 750 mmHg 24%
17:00 +37°C° 0 mm 4 m/s 750 mmHg 25%
18:00 +36°C° 0 mm 4 m/s 750 mmHg 25%
19:00 +34°C° 0 mm 5 m/s 750 mmHg 26%
20:00 +32°C° 0 mm 5 m/s 750 mmHg 27%
21:00 +29°C° 0 mm 6 m/s 750 mmHg 28%
22:00 +29°C° 0 mm 6 m/s 750 mmHg 29%
23:00 +28°C° 0 mm 5 m/s 750 mmHg 30%
Mostrar mais

Necessitamos do seu Consentimento

A Meteoprog e os seus Fornecedores de Serviços podem armazenar e aceder a dados pessoais como cookies, identificadores do dispositivo ou outras tecnologias semelhantes existentes no seu dispositivo e processar estes dados para personalizar conteúdos e anúncios, assim como funcionalidades nas redes sociais e análise de tráfego.

  • Armazenar e/ou aceder a informações no seu dispositivo

    Os cookies, identificadores do dispositivo ou outras informações podem ser armazenados ou acedidos no seu dispositivo, para os fins acima indicados.

  • Anúncios e conteúdos personalizados, medição de anúncios e conteúdos, dados sobre o público-alvo e desenvolvimento de produtos

    Os anúncios e os conteúdos podem ser personalizados com base num perfil. Podem ser adicionados dados adicionais para uma maior personalização dos anúncios e dos conteúdos. A eficácia dos anúncios e dos conteúdos pode ser medida. Podem ser obtidas informações sobre o público que visualizou os anúncios e os conteúdos. Estes dados podem ser usados para desenvolver ou melhorar sistemas, softwares ou a experiência do utilizador.

Ao clicar em "Eu concordo”, permitirá o uso de cookies, identificadores do dispositivo e web beacons mencionados ou outras tecnologias semelhantes. As configurações do navegador do seu dispositivo podem ser alteradas.

Para certos fins, podem ser invocados interesses legítimos ao invés de consentimento. Pode ler mais informação sobre este assunto na nossa Política de Privacidade e Cookies.